Marsa Alam International, Egypt

4:55 AM EET on September 21, 2017 (GMT +0200)
Marsa Alam International

Weather History for HEMA - December, 2013

Change the Weather History Date:

Wednesday, December 4, 2013

  Actual Average Record
Temperature  
Mean Temperature 73 °F -  
Max Temperature 82 °F - - ()
Min Temperature 64 °F - - ()
Cooling Degree Days 8    
Growing Degree Days 23 (Base 50)    
Moisture  
Dew Point 63 °F    
Average Humidity 69    
Maximum Humidity 88    
Minimum Humidity 45    
Precipitation  
Precipitation 0.00 in - - ()
Sea Level Pressure  
Sea Level Pressure 29.90 in    
Wind  
Wind Speed 6 mph ()    
Max Wind Speed 14 mph    
Max Gust Speed -    
T = Trace of Precipitation, MM = Missing Value Source: Averaged Metar Reports

Daily Weather History Graph

Daily Weather History Graph

Search for Another Location

Airport or City:

Trip Planner

Search our weather history database for the weather conditions in past years. The results will help you decide how hot, cold, wet, or windy it might be!

Date:

Astronomy

Dec. 04, 2013 Rise Set
Actual Time 6:12 AM EET 4:50 PM EET
Civil Twilight 5:47 AM EET 5:15 PM EET
Nautical Twilight 5:19 AM EET 5:44 PM EET
Astronomical Twilight 4:51 AM EET 6:12 PM EET
Moon 7:24 AM EET (12/4) 6:33 PM EET (12/4)
Length of Visible Light 11h 27m
Length of Day
10h 37m
Waxing Crescent, 3% of the Moon is Illuminated
Dec 4
Waxing Crescent
Dec 9
First Quarter
Dec 17
Full
Dec 25
Last Quarter
Jan 1
New

Hourly Weather History & Observations

Time (EET) Temp. Heat Index Dew Point Humidity Pressure Visibility Wind Dir Wind Speed Gust Speed Precip Events Conditions
12:00 AM 69.8 °F - 66.2 °F 88% 29.92 in - WNW 5.8 mph - N/A   Clear
1:00 AM 68.0 °F - 62.6 °F 83% 29.92 in - West 4.6 mph - N/A   Clear
2:00 AM 68.0 °F - 60.8 °F 78% 29.92 in - WNW 6.9 mph - N/A   Clear
3:00 AM 66.2 °F - 62.6 °F 88% 29.92 in - NW 5.8 mph - N/A   Clear
4:00 AM 66.2 °F - 62.6 °F 88% 29.92 in - NW 6.9 mph - N/A   Clear
5:00 AM 64.4 °F - 59.0 °F 83% 29.95 in - NW 8.1 mph - N/A   Clear
9:00 AM 77.0 °F - 60.8 °F 57% 29.95 in - NNW 13.8 mph - N/A   Clear
10:00 AM 78.8 °F - 59.0 °F 51% 29.95 in - North 11.5 mph - N/A   Clear
1:00 PM 80.6 °F 82.7 °F 66.2 °F 61% 29.86 in - East 4.6 mph - N/A   Clear
2:00 PM 80.6 °F 83.2 °F 68.0 °F 65% 29.86 in - East 6.9 mph - N/A   Clear
3:00 PM 82.4 °F 82.5 °F 59.0 °F 45% 29.86 in - Variable 3.5 mph - N/A   Clear
4:00 PM 80.6 °F 81.8 °F 62.6 °F 54% 29.86 in - NNE 9.2 mph - N/A   Clear
5:00 PM 78.8 °F - 60.8 °F 54% 29.86 in - North 8.1 mph - N/A   Clear
6:00 PM 78.8 °F - 62.6 °F 57% 29.86 in - North 5.8 mph - N/A   Clear
7:00 PM 77.0 °F - 60.8 °F 57% 29.86 in - North 10.4 mph - N/A   Clear
8:00 PM 73.4 °F - 57.2 °F 57% 29.86 in - NNE 4.6 mph - N/A   Clear
9:00 PM 73.4 °F - 68.0 °F 83% 29.89 in - NW 6.9 mph - N/A   Clear
10:00 PM 73.4 °F - 66.2 °F 78% 29.92 in - NNW 9.2 mph - N/A   Clear
11:00 PM 71.6 °F - 64.4 °F 78% 29.92 in - North 5.8 mph - N/A   Clear